Cloud_Cover
8 62 16 90 58 6 5 5 2 0 0 0 0 0 0 2 66 57 3 96 13 2 50 4 0 0 0 4 0 0 0 0 0 0 0 0 0 0 0 0 0 0 0 0
100 10 5 5 5 5 5 5 5 0 0 0 0 0 0 0 0 0 0 0 88 10 100 23 0 0 0 0 0 0 0 0 0 0 0 0 0 0 0 2 5 0 0 2
97 35 6 4 5 6 5 5 0 0 0 0 1 2 0 0 0 0 0 4 1 0 0 25 0 0 0 0 0 0 0 0 0 0 0 0 0 0 4 5 5 3 51 23
42 6 55 5 5 5 5 5 5 4 0 5 1 0 0 44 2 0 0 0 28 5 0 0 0 0 0 0 0 0 0 0 0 0 0 0 0 0 0 5 12 6 12 5
23 6 5 5 6 5 5 5 5 18 5 6 5 0 0 6 95 0 2 96 100 1 0 4 0 0 0 0 0 0 0 0 0 0 1 2 4 0 18 98 11 5 5 10
0 12 52 13 3 5 5 5 53 21 11 48 17 5 5 8 100 100 100 82 2 0 0 0 12 0 0 0 0 0 0 4 16 4 5 5 5 66 93 25 5 6 5 5
0 0 0 0 27 100 100 62 50 20 32 96 23 21 48 31 100 70 68 90 76 3 0 0 1 5 5 5 5 12 60 100 94 91 58 13 40 22 8 5 5 5 5 37
0 34 10 0 0 0 0 12 89 70 43 56 94 100 100 98 100 9 6 5 5 23 25 50 39 39 0 3 65 45 100 100 100 100 100 85 91 28 6 76 64 12 5 5
0 4 6 0 0 0 0 0 1 33 2 2 37 76 98 95 70 100 24 5 77 13 78 94 49 100 64 100 100 100 100 100 100 100 100 100 100 49 100 100 91 16 100 78
0 0 1 4 0 0 0 0 0 2 1 0 1 0 100 83 89 99 100 84 5 94 93 100 100 100 100 100 100 100 100 100 100 100 100 100 100 100 100 98 71 99 100 100
0 0 0 0 5 0 4 0 0 0 2 5 7 84 100 67 79 100 100 99 49 17 66 100 92 100 100 100 100 100 100 100 100 100 100 100 100 100 100 100 83 100 100 75
98 9 0 0 0 5 5 1 73 73 24 36 12 0 99 100 100 77 7 91 90 23 100 34 9 66 98 100 100 100 100 100 100 100 100 100 100 100 100 100 100 100 98 100
5 3 0 0 0 4 22 34 14 4 2 0 1 0 0 1 50 5 3 4 5 18 74 67 97 6 5 37 52 100 100 100 100 100 100 100 100 90 95 99 92 100 98 94
1 4 2 5 0 5 27 92 100 37 4 53 74 28 84 28 30 65 98 0 0 0 8 34 6 60 4 30 60 96 90 100 93 16 36 29 5 89 68 23 86 100 100 94
7 1 5 5 5 0 0 1 14 84 90 5 15 6 98 35 68 66 38 0 10 78 99 78 2 3 5 19 100 98 100 91 41 3 2 5 5 54 93 97 100 100 69 58
100 100 100 47 50 5 4 0 0 2 1 0 1 0 0 0 0 0 0 20 5 0 0 26 5 0 0 0 88 100 93 76 47 4 5 5 6 95 93 100 100 70 58 18
6 64 100 100 100 42 6 60 74 5 0 0 9 23 5 23 100 41 3 0 2 0 0 3 8 1 0 0 0 97 100 100 46 0 6 16 16 100 100 67 78 38 54 100
5 5 3 75 100 64 100 100 100 96 4 2 2 78 100 94 83 6 0 0 5 0 2 1 10 2 0 0 6 100 100 100 12 1 21 100 100 100 87 10 5 5 5 4
5 2 0 1 14 100 98 100 100 100 62 5 8 1 3 2 99 0 0 0 0 99 100 3 0 0 0 0 6 93 100 100 1 43 40 100 100 100 100 49 5 5 52 5
1 0 4 7 55 24 100 100 98 49 14 66 53 70 4 4 93 6 0 0 0 21 55 100 0 97 0 20 100 94 100 64 72 72 87 100 100 100 100 59 36 62 27 5
18 6 0 23 46 90 99 100 73 75 67 100 100 100 100 94 100 67 2 2 11 0 35 100 18 85 19 28 86 61 100 96 47 98 99 100 100 100 100 100 72 100 91 9
97 90 99 100 99 68 100 100 100 23 93 100 100 100 100 100 100 100 100 58 24 80 76 100 100 97 89 6 73 100 100 97 100 100 100 100 100 100 100 68 98 100 98 28
7 100 100 100 92 100 100 100 100 100 100 48 5 79 100 100 100 100 100 6 49 82 99 100 100 86 100 100 100 100 100 100 100 100 100 100 100 100 100 94 100 98 100 81
100 99 100 100 100 100 100 100 100 100 97 94 71 97 100 100 100 100 83 11 66 32 44 100 100 100 100 100 100 100 100 99 100 100 100 100 100 100 100 100 77 100 100 18
18 99 100 81 100 100 100 100 100 100 92 98 100 100 98 32 93 96 6 61 92 53 6 100 100 100 100 100 100 100 100 100 100 100 100 100 100 100 100 100 100 100 100 6
5 61 100 100 100 100 100 100 90 81 100 100 100 100 100 100 30 5 63 100 79 100 32 100 100 100 80 100 100 100 100 100 100 100 100 100 100 100 100 100 100 100 27 5